Location: Karcze
(52.0945°N, 22.4786°E)
Time: 17:25:31
(UTC+00:00)

A-11 Canister half - Pass Details

Date: 04 August 2021
Orbit: 1515 x 1685 km, 47.2° (Epoch: 20 September)

Event Time Altitude Azimuth Distance (km) Brightness Sun altitude
Rises 17:47:39 0° 267° (W) 4,831 12.9 2.9°
Reaches altitude 10° 17:50:45 10° 265° (W) 3,866 12.3 2.5°
Maximum altitude 18:00:33 67° 186° (S) 1,782 9.4 1.1°
Drops below altitude 10° 18:10:35 10° 107° (ESE) 3,948 10.5 -0.2°
Sets 18:13:47 0° 105° (ESE) 4,938 11.0 -0.7°
